Weather History for Point Salines, Grenada

Change the Weather History Date:

Sunday, June 9, 2013

  Actual Average Record
Temperature  
Mean Temperature 80 °F -  
Max Temperature 86 °F 84 °F 87 °F (1997)
Min Temperature 75 °F 76 °F 73 °F (2004)
Cooling Degree Days 16    
Growing Degree Days 30 (Base 50)    
Moisture  
Dew Point 76 °F    
Average Humidity 85    
Maximum Humidity 100    
Minimum Humidity 67    
Precipitation  
Precipitation 0.28 in - - ()
Sea Level Pressure  
Sea Level Pressure 29.95 in    
Wind  
Wind Speed 12 mph ()    
Max Wind Speed 21 mph    
Max Gust Speed 37 mph    
Visibility 6.4 miles    
Events Rain    
Averages and records for this station are not official NWS values.
T = Trace of Precipitation, MM = Missing Value Source: Averaged Metar Reports

Daily Weather History Graph

Daily Weather History Graph

Search for Another Location

Airport:

Trip Planner

Search our weather history database for the weather conditions in past years. The results will help you decide how hot, cold, wet, or windy it might be!

Date:

Astronomy

Jun. 09, 2013 Rise Set
Actual Time 5:42 AM AST 6:30 PM AST
Civil Twilight 5:18 AM AST 6:54 PM AST
Nautical Twilight 4:51 AM AST 7:21 PM AST
Astronomical Twilight 4:23 AM AST 7:49 PM AST
Moon 6:25 AM AST (6/9) 7:25 PM AST (6/9)
Length of Visible Light 13h 35m
Length of Day
12h 48m
New Moon, 1% of the Moon is Illuminated
Jun 9
New Moon
Jun 16
First Quarter
Jun 23
Full
Jun 30
Last Quarter
Jul 8
New

Hourly Weather History & Observations

Time (AST) Temp. Heat Index Dew Point Humidity Pressure Visibility Wind Dir Wind Speed Gust Speed Precip Events Conditions
12:00 AM 78.8 °F - 77.0 °F 94% 29.98 in 6.2 mi ESE 15.0 mph - N/A   Scattered Clouds
1:00 AM 80.6 °F 87.1 °F 77.0 °F 89% 29.98 in 6.2 mi East 11.5 mph - N/A   Scattered Clouds
2:00 AM 80 °F - 76 °F 84% 29.96 in 9 mi East 13.8 mph - - Rain Light Rain Showers
2:00 AM 80.6 °F 86.2 °F 75.2 °F 84% 29.95 in 6.2 mi East 13.8 mph - N/A Rain Light Rain Showers
3:00 AM 80.6 °F 86.2 °F 75.2 °F 84% 29.95 in 6.2 mi East 17.3 mph - N/A   Scattered Clouds
3:05 AM 75.2 °F - 73.4 °F 94% 29.95 in 3.1 mi East 17.3 mph 36.8 mph N/A Rain Rain Showers
3:19 AM 77.0 °F - 73.4 °F 89% 29.95 in 6.2 mi East 11.5 mph - N/A   Scattered Clouds
4:00 AM 77.0 °F - 75.2 °F 94% 29.95 in 6.2 mi East 6.9 mph - N/A   Scattered Clouds
5:00 AM 78 °F - 76 °F 91% 29.94 in 8 mi 2.3 mph - -   Widespread Dust
5:00 AM 77.0 °F - 75.2 °F 94% 29.95 in 6.2 mi Variable 2.3 mph - N/A   Scattered Clouds
6:00 AM 78.8 °F - 75.2 °F 89% 29.95 in 6.2 mi East 9.2 mph - N/A   Mostly Cloudy
7:00 AM 78.8 °F - 78.8 °F 100% 29.95 in 4.3 mi East 8.1 mph - N/A Rain Rain Showers
8:00 AM 82 °F - 78 °F 83% 29.97 in 6 mi East 9.2 mph - - Rain Light Rain Showers
8:00 AM 82.4 °F 90.9 °F 77.0 °F 84% 29.95 in 6.2 mi East 9.2 mph - N/A   Mostly Cloudy
9:00 AM 82.4 °F 90.9 °F 77.0 °F 84% 29.98 in 6.2 mi East 17.3 mph - N/A   Mostly Cloudy
10:00 AM 84.2 °F 94.1 °F 77.0 °F 79% 29.98 in 6.2 mi East 17.3 mph - N/A   Mostly Cloudy
11:00 AM 85 °F - 77 °F 71% 29.98 in 10 mi East 19.6 mph - - Rain Light Rain Showers
11:00 AM 86.0 °F 96.9 °F 77.0 °F 74% 29.98 in 6.2 mi East 19.6 mph - N/A   Mostly Cloudy
12:00 PM 86.0 °F 96.9 °F 77.0 °F 74% 29.95 in 6.2 mi East 18.4 mph - N/A   Mostly Cloudy
1:00 PM 86.0 °F 96.9 °F 77.0 °F 74% 29.95 in 6.2 mi East 17.3 mph - N/A   Mostly Cloudy
2:00 PM 86 °F - 77 °F 67% 29.94 in 11 mi East 17.3 mph - -   Widespread Dust
2:00 PM 86.0 °F 96.9 °F 77.0 °F 74% 29.92 in 6.2 mi East 17.3 mph - N/A   Mostly Cloudy
3:00 PM 86.0 °F 96.9 °F 77.0 °F 74% 29.89 in 6.2 mi East 20.7 mph - N/A   Mostly Cloudy
4:00 PM 84.2 °F 94.1 °F 77.0 °F 79% 29.89 in 5.0 mi East 20.7 mph - N/A   Mostly Cloudy
5:00 PM 83 °F - 77 °F 78% 29.91 in 9 mi East 15.0 mph - -   Widespread Dust
5:00 PM 82.4 °F 90.9 °F 77.0 °F 84% 29.89 in 6.2 mi East 15.0 mph - N/A   Mostly Cloudy
6:00 PM 82.4 °F 90.9 °F 77.0 °F 84% 29.92 in 6.2 mi East 17.3 mph - N/A   Mostly Cloudy
7:00 PM 78.8 °F - 77.0 °F 94% 29.92 in 6.2 mi East 18.4 mph - N/A   Scattered Clouds
8:00 PM 80 °F - 76 °F 86% 29.95 in 7 mi East 11.5 mph - -   Widespread Dust
8:00 PM 80.6 °F 87.1 °F 77.0 °F 89% 29.95 in 6.2 mi East 11.5 mph - N/A   Mostly Cloudy
9:00 PM 77.0 °F - 77.0 °F 100% 29.98 in 3.1 mi East 11.5 mph - N/A Rain Rain Showers
10:00 PM 77.0 °F - 75.2 °F 94% 29.98 in 6.2 mi East 15.0 mph - N/A   Mostly Cloudy
11:00 PM 79 °F - 75 °F 85% 29.97 in 6 mi East 13.8 mph - -   Overcast
11:00 PM 78.8 °F - 75.2 °F 89% 29.95 in 6.2 mi East 13.8 mph - N/A   Mostly Cloudy